"startDT [UTC]","vpos","CH4 [ppm]","stdev(CH4) [ppm]","CO2 [ppm]","stdev(CO2) [ppm]","H2O [ppm]","stdev(H2O)","p_LGR [torr]","T_LGR [C]","mt1_LGR [us]","mt2_LGR [us]","T_ECpre [C]","T_EC1 [C]","T_EC2 [C]","p_inlet [hPa]","p_in [hPa]","p_out [hPa]","T_inlet [C]","RH_inlet [%]","dwpt_inlet [C]","T_vent [C]","RH_vent [%]","dwpt_vent [C]","flow_vent [l min-1]","flow_inlet [l min-1]","dwpt_sample [C]","T_room [C]"
2012-10-18 00:00:00,0.0,1.9264,0.0011,395.17,0.33,310.6,31.1,138.06,30.77,24.65,36.38,0.04,-272.75,-272.75,-43,570,-940,25.1,6.5,-14.0,25.4,6.5,-13.8,5.73,2.40,-21.6,30.5
2012-10-18 00:01:00,0.0,1.9263,0.0010,395.20,0.31,307.6,30.3,138.07,30.77,24.65,36.38,0.04,-272.75,-272.75,-43,570,-940,25.1,6.5,-14.0,25.4,6.5,-13.7,5.73,2.43,-21.6,30.6
2012-10-18 00:02:00,0.0,1.9256,0.0010,395.23,0.29,312.7,26.4,138.07,30.77,24.65,36.37,0.04,-272.75,-272.74,-43,570,-940,25.1,6.5,-14.0,25.4,6.5,-13.7,5.73,2.41,-21.6,30.6
2012-10-18 00:03:00,0.0,1.9262,0.0010,395.15,0.31,308.4,35.0,138.07,30.77,24.65,36.38,0.04,-272.75,-272.75,-43,570,-940,25.1,6.5,-14.0,25.4,6.6,-13.7,5.73,2.37,-21.6,30.5
2012-10-18 00:04:00,0.0,1.9270,0.0012,395.29,0.26,307.7,32.3,138.07,30.77,24.65,36.38,0.04,-272.75,-272.75,-43,570,-940,25.1,6.5,-14.0,25.4,6.6,-13.7,5.73,2.34,-21.6,30.5
2012-10-18 00:05:00,0.0,1.9263,0.0011,395.13,0.30,307.9,34.9,138.07,30.78,24.64,36.38,0.04,-272.75,-272.75,-43,570,-940,25.1,6.6,-13.9,25.4,6.6,-13.7,5.73,2.38,-21.6,30.5
2012-10-18 00:06:00,0.0,1.9259,0.0011,395.14,0.31,311.3,34.4,138.07,30.78,24.65,36.38,0.04,-272.75,-272.75,-43,570,-940,25.1,6.6,-13.9,25.4,6.6,-13.7,5.73,2.42,-21.6,30.5
2012-10-18 00:07:00,0.0,1.9262,0.0013,395.13,0.28,305.8,28.5,138.07,30.78,24.65,36.38,0.04,-272.74,-272.75,-43,570,-940,25.1,6.6,-13.9,25.4,6.6,-13.6,5.73,2.43,-21.6,30.5
2012-10-18 00:08:00,0.0,1.9262,0.0011,395.11,0.29,306.5,27.7,138.07,30.78,24.65,36.38,0.04,-272.75,-272.75,-43,570,-940,25.1,6.6,-13.8,25.4,6.6,-13.6,5.73,2.39,-21.6,30.5
2012-10-18 00:09:00,0.0,1.9271,0.0010,395.33,0.32,304.9,31.2,138.07,30.78,24.65,36.38,0.04,-272.75,-272.75,-43,570,-940,25.1,6.6,-13.8,25.4,6.6,-13.6,5.73,2.35,-21.6,30.6
2012-10-18 00:10:00,0.0,1.9270,0.0009,395.32,0.31,307.5,33.8,138.07,30.78,24.65,36.38,0.04,-272.74,-272.75,-43,570,-940,25.1,6.6,-13.8,25.4,6.6,-13.6,5.73,2.35,-21.6,30.6
2012-10-18 00:11:00,0.0,1.9275,0.0008,395.29,0.32,303.5,28.1,138.07,30.78,24.65,36.38,0.04,-272.75,-272.75,-43,570,-940,25.1,6.6,-13.8,25.4,6.6,-13.6,5.73,2.39,-21.6,30.6
2012-10-18 00:12:00,0.0,1.9266,0.0009,395.26,0.32,311.4,30.4,138.07,30.79,24.65,36.37,0.04,-272.75,-272.75,-43,570,-940,25.1,6.6,-13.8,25.4,6.6,-13.6,5.73,2.43,-21.6,30.6
2012-10-18 00:13:00,0.0,1.9265,0.0012,395.25,0.23,306.3,34.4,138.07,30.79,24.65,36.38,0.04,-272.74,-272.75,-43,570,-940,25.1,6.6,-13.8,25.4,6.6,-13.6,5.73,2.42,-21.6,30.6
2012-10-18 00:14:00,0.0,1.9267,0.0012,395.25,0.26,303.1,37.7,138.07,30.79,24.65,36.38,0.04,-272.75,-272.74,-43,570,-940,25.1,6.6,-13.8,25.4,6.6,-13.6,5.73,2.37,-21.6,30.5
2012-10-18 00:15:00,0.0,1.9263,0.0011,395.15,0.33,311.6,28.5,138.07,30.79,24.65,36.38,0.04,-272.74,-272.75,-43,570,-940,25.1,6.6,-13.8,25.4,6.6,-13.6,5.73,2.34,-21.6,30.5
2012-10-18 00:16:00,0.0,1.9267,0.0011,395.24,0.28,312.5,27.9,138.07,30.79,24.65,36.38,0.04,-272.74,-272.74,-43,570,-940,25.1,6.6,-13.8,25.4,6.6,-13.6,5.73,2.37,-21.6,30.5
2012-10-18 00:17:00,0.0,1.9273,0.0008,395.37,0.34,304.7,26.4,138.07,30.80,24.65,36.38,0.04,-272.75,-272.74,-43,570,-940,25.1,6.6,-13.9,25.4,6.6,-13.6,5.73,2.42,-21.6,30.6
2012-10-18 00:18:00,0.0,1.9277,0.0012,395.40,0.28,303.0,38.0,138.07,30.80,24.65,36.37,0.04,-272.75,-272.75,-43,570,-940,25.1,6.6,-13.9,25.4,6.6,-13.6,5.73,2.43,-21.6,30.6
2012-10-18 00:19:00,0.0,1.9276,0.0009,395.29,0.25,304.0,32.8,138.07,30.80,24.65,36.38,0.04,-272.74,-272.75,-43,570,-940,25.1,6.6,-13.9,25.4,6.6,-13.7,5.73,2.39,-21.6,30.6
2012-10-18 00:20:00,0.0,1.9273,0.0010,395.31,0.31,306.8,31.8,138.07,30.80,24.65,36.38,0.04,-272.74,-272.74,-43,571,-940,25.1,6.5,-13.9,25.4,6.6,-13.7,5.73,2.35,-21.6,30.6
2012-10-18 00:21:00,0.0,1.9275,0.0010,395.39,0.33,311.1,34.5,138.07,30.81,24.65,36.38,0.04,-272.74,-272.75,-43,570,-940,25.1,6.5,-13.9,25.4,6.6,-13.7,5.73,2.35,-21.6,30.6
2012-10-18 00:22:00,0.0,1.9280,0.0010,395.40,0.28,314.4,30.0,138.07,30.81,24.64,36.38,0.04,-272.74,-272.75,-43,570,-940,25.1,6.6,-13.9,25.4,6.6,-13.7,5.73,2.40,-21.6,30.6
2012-10-18 00:23:00,0.0,1.9273,0.0011,395.34,0.34,315.7,31.9,138.07,30.81,24.65,36.38,0.04,-272.74,-272.74,-43,570,-940,25.1,6.5,-14.0,25.4,6.5,-13.7,5.73,2.43,-21.6,30.6
2012-10-18 00:24:00,0.0,1.9301,0.0020,395.51,0.34,311.8,31.4,138.07,30.81,24.65,36.39,0.04,-272.75,-272.75,-43,571,-940,25.1,6.5,-14.0,25.5,6.5,-13.7,5.73,2.41,-21.6,30.6
2012-10-18 00:25:00,0.0,1.9350,0.0011,395.95,0.33,305.9,34.2,138.06,30.81,24.65,36.38,0.04,-272.74,-272.75,-43,571,-940,25.1,6.4,-14.2,25.5,6.4,-13.9,5.73,2.37,-21.6,30.6
2012-10-18 00:26:00,0.0,1.9335,0.0010,395.70,0.31,303.2,27.8,138.06,30.82,24.65,36.39,0.04,-272.74,-272.74,-43,570,-940,25.1,6.4,-14.2,25.4,6.4,-13.9,5.73,2.34,-21.6,30.6
2012-10-18 00:27:00,0.0,1.9301,0.0014,395.54,0.33,308.5,28.3,138.06,30.82,24.65,36.38,0.04,-272.75,-272.74,-43,571,-940,25.1,6.4,-14.2,25.4,6.4,-13.9,5.73,2.38,-21.6,30.6
2012-10-18 00:28:00,0.0,1.9333,0.0025,395.80,0.36,310.0,39.2,138.06,30.82,24.65,36.37,0.04,-272.75,-272.75,-43,571,-940,25.1,6.4,-14.2,25.4,6.4,-13.9,5.73,2.42,-21.6,30.6
2012-10-18 00:29:00,0.0,1.9381,0.0019,396.21,0.30,313.9,31.9,138.06,30.82,24.65,36.38,0.04,-272.75,-272.74,-43,570,-940,25.1,6.4,-14.2,25.5,6.4,-14.0,5.73,2.42,-21.6,30.6
2012-10-18 00:30:00,0.0,1.9377,0.0023,396.28,0.37,295.8,31.5,138.07,30.82,24.65,36.38,0.04,-272.74,-272.74,-43,571,-940,25.1,6.3,-14.3,25.4,6.3,-14.1,5.73,2.37,-21.6,30.6
2012-10-18 00:31:00,0.0,1.9329,0.0011,395.69,0.30,312.6,30.0,138.06,30.82,24.65,36.38,0.04,-272.75,-272.75,-43,571,-940,25.1,6.3,-14.3,25.4,6.4,-14.1,5.73,2.34,-21.6,30.6
2012-10-18 00:32:00,0.0,1.9316,0.0023,395.67,0.33,299.1,37.5,138.06,30.83,24.65,36.38,0.04,-272.74,-272.75,-43,571,-940,25.1,6.4,-14.2,25.4,6.4,-14.0,5.73,2.37,-21.6,30.6
2012-10-18 00:33:00,0.0,1.9281,0.0010,395.24,0.26,307.4,36.5,138.07,30.83,24.65,36.38,0.04,-272.74,-272.74,-43,571,-940,25.1,6.4,-14.2,25.5,6.4,-13.9,5.73,2.42,-21.6,30.6
2012-10-18 00:34:00,0.0,1.9280,0.0012,395.23,0.34,299.4,33.0,138.06,30.83,24.65,36.38,0.04,-272.75,-272.75,-43,571,-940,25.1,6.5,-14.1,25.5,6.5,-13.8,5.73,2.43,-21.6,30.6
2012-10-18 00:35:00,0.0,1.9268,0.0011,395.09,0.30,309.0,34.0,138.06,30.83,24.65,36.38,0.04,-272.74,-272.75,-43,571,-940,25.1,6.5,-14.1,25.5,6.5,-13.8,5.73,2.39,-21.6,30.6
2012-10-18 00:36:00,0.0,1.9294,0.0015,395.28,0.33,312.7,29.9,138.07,30.83,24.65,36.38,0.04,-272.74,-272.74,-43,571,-940,25.1,6.5,-14.1,25.4,6.5,-13.8,5.73,2.34,-21.6,30.6
2012-10-18 00:37:00,0.0,1.9300,0.0021,395.39,0.33,303.8,32.1,138.06,30.83,24.65,36.38,0.04,-272.74,-272.74,-43,571,-940,25.1,6.5,-14.0,25.5,6.5,-13.8,5.73,2.35,-21.6,30.6
2012-10-18 00:38:00,0.0,1.9301,0.0015,395.48,0.34,303.3,32.2,138.07,30.84,24.66,36.38,0.04,-272.75,-272.75,-43,570,-940,25.1,6.5,-14.1,25.5,6.5,-13.8,5.73,2.40,-21.6,30.6
2012-10-18 00:39:00,0.0,1.9317,0.0029,395.52,0.34,311.2,28.6,138.06,30.84,24.65,36.37,0.04,-272.75,-272.75,-43,570,-940,25.1,6.5,-14.1,25.4,6.5,-13.8,5.73,2.43,-21.6,30.6
2012-10-18 00:40:00,0.0,1.9354,0.0012,395.76,0.29,311.4,28.2,138.06,30.84,24.65,36.38,0.04,-272.74,-272.75,-43,570,-940,25.1,6.4,-14.2,25.5,6.4,-13.9,5.73,2.40,-21.6,30.6
2012-10-18 00:41:00,0.0,1.9333,0.0012,395.67,0.32,307.4,31.0,138.06,30.84,24.65,36.37,0.04,-272.75,-272.74,-43,571,-940,25.1,6.4,-14.1,25.5,6.5,-13.9,5.73,2.35,-21.6,30.6
2012-10-18 00:42:00,0.0,1.9305,0.0012,395.30,0.24,307.5,29.0,138.06,30.84,24.65,36.38,0.04,-272.74,-272.75,-43,570,-940,25.1,6.5,-14.1,25.5,6.5,-13.8,5.73,2.35,-21.6,30.6
2012-10-18 00:43:00,0.0,1.9305,0.0016,395.24,0.29,307.4,32.4,138.06,30.84,24.65,36.38,0.04,-272.74,-272.74,-43,571,-940,25.2,6.5,-14.0,25.5,6.5,-13.8,5.73,2.38,-21.6,30.6
2012-10-18 00:44:00,0.0,1.9328,0.0024,395.31,0.33,303.6,34.1,138.06,30.85,24.65,36.38,0.04,-272.74,-272.75,-43,571,-940,25.2,6.5,-14.0,25.5,6.5,-13.8,5.73,2.42,-21.5,30.6
2012-10-18 00:45:00,0.0,1.9300,0.0012,395.30,0.30,308.0,31.6,138.06,30.85,24.65,36.38,0.04,-272.74,-272.74,-43,571,-940,25.2,6.5,-14.0,25.5,6.5,-13.8,5.73,2.42,-21.5,30.6
2012-10-18 00:46:00,0.0,1.9301,0.0015,395.30,0.27,314.1,34.5,138.06,30.85,24.65,36.38,0.04,-272.74,-272.74,-43,570,-940,25.2,6.5,-14.0,25.5,6.5,-13.7,5.73,2.38,-21.5,30.7
2012-10-18 00:47:00,0.0,1.9307,0.0011,395.27,0.31,310.0,32.8,138.06,30.85,24.65,36.38,0.04,-272.74,-272.74,-43,571,-940,25.2,6.5,-14.0,25.5,6.5,-13.8,5.73,2.35,-21.5,30.7
2012-10-18 00:48:00,0.0,1.9347,0.0023,395.60,0.28,304.2,35.9,138.06,30.86,24.65,36.38,0.04,-272.75,-272.75,-43,571,-940,25.2,6.5,-14.0,25.5,6.5,-13.8,5.73,2.36,-21.5,30.7
2012-10-18 00:49:00,0.0,1.9373,0.0020,395.88,0.31,312.2,35.4,138.06,30.86,24.65,36.38,0.04,-272.74,-272.74,-43,571,-940,25.2,6.4,-14.1,25.5,6.5,-13.8,5.73,2.41,-21.5,30.7
2012-10-18 00:50:00,0.0,1.9358,0.0019,395.87,0.41,305.4,32.2,138.06,30.86,24.65,36.37,0.04,-272.74,-272.74,-43,571,-940,25.2,6.4,-14.1,25.5,6.4,-13.9,5.73,2.43,-21.5,30.7
2012-10-18 00:51:00,0.0,1.9352,0.0013,395.90,0.32,307.7,36.0,138.06,30.87,24.65,36.38,0.04,-272.74,-272.75,-43,571,-940,25.2,6.4,-14.1,25.5,6.4,-13.9,5.73,2.40,-21.5,30.7
2012-10-18 00:52:00,0.0,1.9343,0.0021,395.52,0.34,307.4,32.2,138.06,30.87,24.65,36.38,0.04,-272.75,-272.75,-43,571,-940,25.2,6.4,-14.1,25.5,6.4,-13.9,5.73,2.35,-21.5,30.8
2012-10-18 00:53:00,0.0,1.9312,0.0013,395.24,0.24,314.5,32.9,138.06,30.87,24.65,36.38,0.04,-272.74,-272.74,-43,571,-940,25.2,6.5,-14.0,25.5,6.5,-13.8,5.73,2.35,-21.5,30.8
2012-10-18 00:54:00,0.0,1.9312,0.0017,395.27,0.28,307.2,36.0,138.06,30.88,24.65,36.38,0.04,-272.75,-272.75,-43,571,-940,25.2,6.5,-13.9,25.5,6.5,-13.7,5.73,2.38,-21.5,30.8
2012-10-18 00:55:00,0.0,1.9348,0.0024,395.61,0.44,317.6,29.5,138.06,30.88,24.65,36.38,0.04,-272.75,-272.75,-43,571,-940,25.2,6.5,-14.0,25.5,6.5,-13.7,5.73,2.43,-21.5,30.8
2012-10-18 00:56:00,0.0,1.9328,0.0026,395.48,0.30,319.0,36.3,138.06,30.88,24.65,36.37,0.04,-272.74,-272.74,-43,571,-940,25.2,6.5,-14.0,25.5,6.5,-13.7,5.73,2.42,-21.5,30.8
2012-10-18 00:57:00,0.0,1.9286,0.0022,395.06,0.39,305.1,31.0,138.06,30.89,24.65,36.38,0.04,-272.74,-272.74,-43,571,-940,25.2,6.5,-13.9,25.5,6.6,-13.6,5.73,2.37,-21.5,30.9
2012-10-18 00:58:00,0.0,1.9330,0.0011,395.45,0.28,307.1,32.9,138.06,30.89,24.65,36.38,0.04,-272.75,-272.75,-43,571,-940,25.2,6.6,-13.9,25.5,6.5,-13.6,5.73,2.34,-21.5,30.9
2012-10-18 00:59:00,0.0,1.9311,0.0018,395.44,0.29,307.7,33.8,138.06,30.90,24.65,36.38,0.04,-272.75,-272.75,-43,571,-940,25.2,6.5,-13.9,25.5,6.5,-13.7,5.73,2.36,-21.4,30.9
2012-10-18 01:00:00,0.0,1.9271,0.0012,395.02,0.42,312.4,35.1,138.06,30.90,24.65,36.38,0.04,-272.74,-272.75,-43,571,-940,25.2,6.6,-13.8,25.5,6.6,-13.6,5.73,2.42,-21.4,31.0
2012-10-18 01:01:00,0.0,1.9288,0.0011,395.09,0.31,315.1,29.8,138.06,30.91,24.65,36.38,0.04,-272.75,-272.75,-43,571,-940,25.2,6.6,-13.7,25.5,6.6,-13.5,5.73,2.42,-21.4,31.0
2012-10-18 01:02:00,0.0,1.9275,0.0015,394.93,0.28,315.5,30.6,138.06,30.91,24.65,36.38,0.04,-272.75,-272.74,-43,571,-940,25.2,6.6,-13.7,25.5,6.6,-13.5,5.73,2.38,-21.4,31.0
2012-10-18 01:03:00,0.0,1.9248,0.0017,394.69,0.30,318.5,31.0,138.06,30.92,24.65,36.38,0.04,-272.74,-272.75,-43,571,-940,25.2,6.7,-13.7,25.5,6.7,-13.4,5.73,2.34,-21.4,31.0
2012-10-18 01:04:00,0.0,1.9233,0.0012,394.67,0.30,316.8,32.9,138.06,30.92,24.65,36.38,0.04,-272.74,-272.75,-43,571,-940,25.2,6.7,-13.6,25.5,6.7,-13.4,5.73,2.36,-21.4,31.0
2012-10-18 01:05:00,0.0,1.9239,0.0011,394.64,0.28,310.7,32.7,138.06,30.92,24.65,36.38,0.04,-272.75,-272.75,-43,571,-941,25.2,6.7,-13.6,25.5,6.7,-13.4,5.73,2.42,-21.4,31.0
2012-10-18 01:06:00,0.0,1.9245,0.0009,394.67,0.27,305.9,28.5,138.06,30.93,24.65,36.39,0.04,-272.74,-272.74,-43,571,-940,25.2,6.7,-13.6,25.5,6.7,-13.4,5.73,2.42,-21.4,31.0
2012-10-18 01:07:00,0.0,1.9286,0.0018,395.15,0.33,313.4,34.0,138.06,30.93,24.65,36.38,0.04,-272.75,-272.74,-43,571,-940,25.2,6.7,-13.7,25.5,6.6,-13.5,5.73,2.35,-21.4,31.0
2012-10-18 01:08:00,0.0,1.9275,0.0013,395.13,0.31,315.4,25.8,138.06,30.93,24.65,36.38,0.04,-272.74,-272.75,-43,571,-940,25.2,6.6,-13.7,25.5,6.6,-13.5,5.73,2.33,-21.4,31.1
2012-10-18 01:09:00,0.0,1.9285,0.0023,395.15,0.36,309.1,27.9,138.06,30.94,24.65,36.38,0.04,-272.76,-272.74,-43,571,-940,25.2,6.6,-13.7,25.5,6.6,-13.5,5.73,2.39,-21.4,31.1
2012-10-18 01:10:00,0.0,1.9305,0.0019,395.33,0.29,318.0,36.5,138.06,30.94,24.65,36.38,0.04,-272.75,-272.74,-43,571,-940,25.2,6.6,-13.8,25.5,6.6,-13.6,5.73,2.43,-21.4,31.1
2012-10-18 01:11:00,0.0,1.9304,0.0020,395.29,0.34,311.4,32.1,138.06,30.95,24.65,36.38,0.04,-272.75,-272.75,-43,571,-940,25.2,6.6,-13.8,25.5,6.6,-13.6,5.73,2.37,-21.4,31.1
2012-10-18 01:12:00,0.0,1.9274,0.0014,394.95,0.26,318.3,30.0,138.06,30.95,24.64,36.38,0.04,-272.74,-272.75,-43,571,-940,25.2,6.6,-13.8,25.5,6.6,-13.6,5.73,2.33,-21.3,31.1
2012-10-18 01:13:00,0.0,1.9238,0.0017,394.58,0.36,314.4,31.5,138.06,30.96,24.65,36.39,0.04,-272.74,-272.75,-43,571,-940,25.2,6.6,-13.7,25.5,6.6,-13.5,5.73,2.36,-21.3,31.1
2012-10-18 01:14:00,0.0,1.9231,0.0011,394.69,0.30,321.0,25.7,138.06,30.96,24.65,36.37,0.04,-272.74,-272.74,-43,571,-940,25.2,6.7,-13.6,25.6,6.7,-13.4,5.73,2.42,-21.3,31.1
2012-10-18 01:15:00,0.0,1.9257,0.0012,394.89,0.33,321.9,28.6,138.06,30.96,24.65,36.39,0.04,-272.74,-272.75,-43,571,-941,25.2,6.6,-13.7,25.5,6.6,-13.5,5.73,2.40,-21.3,31.1
2012-10-18 01:16:00,0.0,1.9240,0.0013,394.65,0.30,315.6,30.0,138.06,30.97,24.65,36.39,0.04,-272.74,-272.74,-43,571,-940,25.2,6.7,-13.7,25.5,6.6,-13.5,5.73,2.34,-21.3,31.2
2012-10-18 01:17:00,0.0,1.9230,0.0008,394.59,0.27,324.8,28.1,138.06,30.97,24.65,36.38,0.04,-272.74,-272.74,-43,571,-940,25.2,6.7,-13.6,25.6,6.6,-13.4,5.73,2.34,-21.4,31.2
2012-10-18 01:18:00,0.0,1.9224,0.0011,394.54,0.32,325.5,36.7,138.06,30.98,24.65,36.38,0.04,-272.74,-272.74,-43,571,-940,25.2,6.7,-13.6,25.6,6.7,-13.4,5.73,2.40,-21.3,31.2
2012-10-18 01:19:00,0.0,1.9226,0.0010,394.54,0.26,312.9,29.5,138.06,30.98,24.65,36.38,0.04,-272.75,-272.74,-43,571,-941,25.2,6.7,-13.5,25.6,6.7,-13.3,5.73,2.42,-21.4,31.2
2012-10-18 01:20:00,0.0,1.9234,0.0011,394.65,0.33,314.0,33.8,138.06,30.98,24.65,36.38,0.04,-272.75,-272.75,-43,571,-941,25.2,6.7,-13.5,25.5,6.7,-13.3,5.73,2.38,-21.3,31.2
2012-10-18 01:21:00,0.0,1.9237,0.0011,394.59,0.31,318.9,31.5,138.06,30.99,24.65,36.38,0.04,-272.75,-272.74,-43,571,-941,25.2,6.8,-13.5,25.6,6.7,-13.3,5.73,2.33,-21.3,31.2
2012-10-18 01:22:00,0.0,1.9234,0.0011,394.64,0.31,322.7,37.7,138.06,30.99,24.65,36.38,0.04,-272.74,-272.74,-43,571,-940,25.2,6.7,-13.5,25.5,6.7,-13.3,5.73,2.36,-21.4,31.2
2012-10-18 01:23:00,0.0,1.9233,0.0009,394.66,0.27,327.7,33.6,138.06,30.99,24.65,36.38,0.04,-272.75,-272.75,-43,571,-941,25.2,6.7,-13.6,25.5,6.7,-13.4,5.73,2.42,-21.4,31.2
2012-10-18 01:24:00,0.0,1.9232,0.0009,394.66,0.30,315.7,33.1,138.06,31.00,24.65,36.38,0.04,-272.74,-272.75,-43,571,-940,25.2,6.8,-13.5,25.5,6.7,-13.3,5.73,2.42,-21.4,31.2
2012-10-18 01:25:00,0.0,1.9237,0.0011,394.62,0.27,312.2,31.5,138.05,31.00,24.65,36.38,0.04,-272.75,-272.75,-43,571,-941,25.2,6.7,-13.5,25.5,6.7,-13.3,5.73,2.36,-21.4,31.2
2012-10-18 01:26:00,0.0,1.9230,0.0012,394.51,0.32,321.3,33.0,138.06,31.00,24.65,36.39,0.04,-272.74,-272.74,-44,571,-941,25.2,6.7,-13.5,25.6,6.7,-13.3,5.73,2.33,-21.3,31.2
2012-10-18 01:27:00,0.0,1.9228,0.0008,394.55,0.31,328.5,35.5,138.06,31.01,24.65,36.38,0.04,-272.73,-272.75,-44,571,-941,25.2,6.8,-13.5,25.6,6.7,-13.2,5.73,2.37,-21.4,31.2
2012-10-18 01:28:00,0.0,1.9242,0.0015,394.60,0.33,315.7,33.5,138.06,31.01,24.65,36.38,0.04,-272.75,-272.75,-44,571,-941,25.2,6.8,-13.5,25.6,6.7,-13.2,5.73,2.43,-21.4,31.2
2012-10-18 01:29:00,0.0,1.9246,0.0012,394.54,0.30,318.8,36.4,138.06,31.01,24.65,36.38,0.04,-272.75,-272.75,-43,571,-941,25.2,6.8,-13.5,25.6,6.7,-13.3,5.73,2.41,-21.4,31.2
2012-10-18 01:30:00,0.0,1.9254,0.0013,394.64,0.33,313.8,32.2,138.06,31.02,24.65,36.38,0.04,-272.75,-272.75,-43,571,-941,25.2,6.7,-13.5,25.6,6.7,-13.3,5.73,2.35,-21.4,31.1
2012-10-18 01:31:00,0.0,1.9245,0.0011,394.66,0.27,309.6,34.2,138.06,31.02,24.65,36.38,0.04,-272.75,-272.74,-43,571,-941,25.2,6.7,-13.6,25.5,6.7,-13.4,5.73,2.34,-21.4,31.1
2012-10-18 01:32:00,0.0,1.9262,0.0009,394.84,0.24,306.6,31.1,138.06,31.02,24.65,36.38,0.04,-272.75,-272.75,-43,571,-940,25.2,6.7,-13.6,25.6,6.7,-13.4,5.73,2.38,-21.4,31.1
2012-10-18 01:33:00,0.0,1.9262,0.0010,394.82,0.30,313.9,34.2,138.06,31.02,24.65,36.38,0.04,-272.75,-272.75,-44,571,-941,25.2,6.7,-13.6,25.6,6.7,-13.4,5.73,2.43,-21.4,31.1
2012-10-18 01:34:00,0.0,1.9263,0.0010,394.76,0.25,319.1,28.3,138.06,31.03,24.65,36.39,0.04,-272.74,-272.74,-44,571,-941,25.2,6.7,-13.6,25.6,6.7,-13.4,5.73,2.40,-21.4,31.1
2012-10-18 01:35:00,0.0,1.9259,0.0009,394.81,0.27,320.7,31.6,138.06,31.03,24.65,36.38,0.04,-272.74,-272.75,-44,571,-941,25.2,6.7,-13.6,25.6,6.7,-13.4,5.73,2.34,-21.4,31.1
2012-10-18 01:36:00,0.0,1.9268,0.0011,394.90,0.24,317.8,34.1,138.06,31.03,24.65,36.38,0.04,-272.74,-272.75,-43,571,-941,25.3,6.7,-13.6,25.6,6.7,-13.4,5.73,2.35,-21.4,31.1
2012-10-18 01:37:00,0.0,1.9269,0.0011,394.95,0.33,314.9,34.1,138.06,31.03,24.65,36.38,0.04,-272.74,-272.74,-43,571,-940,25.3,6.7,-13.6,25.6,6.7,-13.4,5.73,2.40,-21.4,31.1
2012-10-18 01:38:00,0.0,1.9266,0.0008,394.93,0.29,311.9,27.0,138.06,31.03,24.65,36.38,0.04,-272.75,-272.75,-43,571,-941,25.3,6.7,-13.6,25.6,6.7,-13.3,5.73,2.43,-21.4,31.1
2012-10-18 01:39:00,0.0,1.9262,0.0013,394.84,0.36,311.9,36.0,138.06,31.04,24.65,36.38,0.04,-272.74,-272.75,-44,571,-940,25.3,6.7,-13.6,25.6,6.7,-13.3,5.73,2.38,-21.4,31.1
2012-10-18 01:40:00,0.0,1.9269,0.0011,394.82,0.26,311.2,31.1,138.06,31.04,24.65,36.39,0.04,-272.74,-272.75,-44,571,-941,25.3,6.7,-13.6,25.6,6.7,-13.3,5.73,2.33,-21.4,31.0
2012-10-18 01:41:00,0.0,1.9260,0.0009,394.82,0.35,316.2,32.9,138.06,31.04,24.65,36.38,0.04,-272.75,-272.75,-44,571,-941,25.3,6.7,-13.5,25.6,6.7,-13.3,5.73,2.35,-21.4,31.0
2012-10-18 01:42:00,0.0,1.9253,0.0010,394.79,0.33,317.9,30.4,138.05,31.05,24.65,36.38,0.04,-272.74,-272.74,-44,571,-941,25.3,6.7,-13.5,25.6,6.7,-13.3,5.73,2.40,-21.4,31.0
2012-10-18 01:43:00,0.0,1.9257,0.0008,394.77,0.27,325.1,29.9,138.06,31.05,24.65,36.39,0.04,-272.75,-272.74,-43,571,-941,25.3,6.7,-13.5,25.6,6.7,-13.3,5.73,2.42,-21.4,31.0
2012-10-18 01:44:00,0.0,1.9261,0.0011,394.82,0.31,314.1,29.3,138.06,31.05,24.65,36.38,0.04,-272.74,-272.74,-43,571,-941,25.3,6.7,-13.5,25.6,6.7,-13.3,5.73,2.38,-21.4,31.0
2012-10-18 01:45:00,0.0,1.9251,0.0011,394.76,0.32,310.5,31.4,138.06,31.05,24.65,36.38,0.04,-272.74,-272.74,-44,571,-941,25.3,6.7,-13.5,25.6,6.7,-13.2,5.73,2.33,-21.4,31.0
2012-10-18 01:46:00,0.0,1.9252,0.0009,394.69,0.28,319.3,34.6,138.06,31.06,24.65,36.38,0.04,-272.75,-272.75,-44,571,-941,25.3,6.7,-13.4,25.6,6.7,-13.2,5.73,2.35,-21.4,31.0
2012-10-18 01:47:00,0.0,1.9262,0.0009,394.70,0.27,313.7,32.5,138.06,31.06,24.65,36.39,0.04,-272.74,-272.73,-44,571,-941,25.3,6.7,-13.5,25.6,6.7,-13.2,5.73,2.41,-21.4,31.1
2012-10-18 01:48:00,0.0,1.9255,0.0010,394.77,0.35,313.0,34.1,138.06,31.06,24.65,36.39,0.04,-272.74,-272.75,-44,571,-941,25.3,6.7,-13.5,25.7,6.7,-13.2,5.73,2.42,-21.4,31.0
2012-10-18 01:49:00,0.0,1.9254,0.0011,394.69,0.25,311.9,34.6,138.06,31.06,24.65,36.38,0.04,-272.75,-272.75,-44,571,-941,25.3,6.7,-13.5,25.7,6.7,-13.2,5.73,2.38,-21.4,31.0
2012-10-18 01:50:00,0.0,1.9258,0.0011,394.82,0.27,319.0,29.4,138.06,31.07,24.65,36.38,0.04,-272.73,-272.74,-44,571,-941,25.4,6.7,-13.4,25.6,6.7,-13.2,5.73,2.34,-21.4,31.0
2012-10-18 01:51:00,0.0,1.9253,0.0010,394.72,0.25,315.8,33.0,138.06,31.07,24.65,36.39,0.04,-272.76,-272.74,-43,571,-941,25.4,6.7,-13.4,25.7,6.7,-13.2,5.73,2.35,-21.4,31.0
2012-10-18 01:52:00,0.0,1.9255,0.0010,394.77,0.29,306.2,32.5,138.06,31.07,24.65,36.38,0.04,-272.74,-272.74,-44,571,-941,25.4,6.7,-13.5,25.7,6.7,-13.2,5.73,2.41,-21.4,31.0
2012-10-18 01:53:00,0.0,1.9256,0.0011,394.72,0.23,312.4,29.0,138.06,31.07,24.65,36.38,0.04,-272.74,-272.74,-44,572,-941,25.4,6.7,-13.4,25.7,6.7,-13.2,5.73,2.43,-21.4,31.0
2012-10-18 01:54:00,0.0,1.9254,0.0010,394.71,0.28,322.2,34.5,138.06,31.08,24.65,36.38,0.04,-272.73,-272.75,-44,571,-941,25.4,6.8,-13.3,25.7,6.7,-13.2,5.73,2.39,-21.4,31.0
2012-10-18 01:55:00,0.0,1.9253,0.0010,394.58,0.30,318.1,31.0,138.06,31.08,24.65,36.39,0.04,-272.74,-272.74,-44,571,-941,25.4,6.7,-13.4,25.7,6.8,-13.2,5.73,2.34,-21.4,31.0
2012-10-18 01:56:00,0.0,1.9249,0.0010,394.65,0.28,317.0,26.9,138.06,31.08,24.65,36.39,0.04,-272.75,-272.75,-44,572,-941,25.4,6.7,-13.4,25.7,6.7,-13.2,5.73,2.35,-21.4,30.9
2012-10-18 01:57:00,0.0,1.9247,0.0009,394.54,0.31,316.6,31.0,138.06,31.08,24.65,36.39,0.04,-272.75,-272.75,-44,571,-941,25.4,6.8,-13.4,25.7,6.8,-13.2,5.73,2.41,-21.4,31.0
2012-10-18 01:58:00,0.0,1.9255,0.0009,394.64,0.28,318.2,33.1,138.06,31.08,24.65,36.38,0.04,-272.75,-272.74,-43,572,-941,25.4,6.7,-13.4,25.7,6.7,-13.2,5.73,2.42,-21.4,31.0
2012-10-18 01:59:00,0.0,1.9259,0.0011,394.71,0.28,320.7,29.4,138.06,31.08,24.64,36.38,0.04,-272.74,-272.75,-44,572,-941,25.4,6.7,-13.4,25.7,6.7,-13.2,5.73,2.38,-21.4,31.0
2012-10-18 02:00:00,0.0,1.9235,0.0010,394.51,0.29,320.2,34.5,138.06,31.09,24.66,36.38,0.04,-272.75,-272.75,-44,572,-941,25.4,6.8,-13.4,25.7,6.8,-13.2,5.73,2.33,-21.4,31.0
2012-10-18 02:01:00,0.0,1.9233,0.0009,394.47,0.25,310.6,35.3,138.06,31.09,24.65,36.39,0.04,-272.75,-272.74,-44,572,-941,25.4,6.7,-13.4,25.7,6.8,-13.1,5.73,2.36,-21.4,30.9
2012-10-18 02:02:00,0.0,1.9251,0.0011,394.65,0.28,310.2,29.5,138.06,31.10,24.65,36.39,0.04,-272.74,-272.74,-44,572,-941,25.4,6.7,-13.4,25.7,6.7,-13.2,5.73,2.41,-21.4,30.9
2012-10-18 02:03:00,0.0,1.9252,0.0012,394.61,0.28,317.6,35.8,138.06,31.10,24.65,36.39,0.04,-272.75,-272.74,-44,572,-941,25.4,6.7,-13.4,25.7,6.8,-13.1,5.73,2.43,-21.3,30.9
2012-10-18 02:04:00,0.0,1.9256,0.0010,394.48,0.23,325.2,30.9,138.06,31.10,24.65,36.40,0.04,-272.74,-272.75,-43,572,-941,25.4,6.7,-13.4,25.7,6.7,-13.1,5.73,2.37,-21.4,30.9
2012-10-18 02:05:00,0.0,1.9261,0.0010,394.62,0.29,327.0,33.0,138.06,31.11,24.65,36.39,0.04,-272.75,-272.74,-44,572,-941,25.4,6.7,-13.3,25.7,6.7,-13.1,5.73,2.33,-21.3,31.0
2012-10-18 02:06:00,0.0,1.9238,0.0011,394.39,0.34,327.9,30.4,138.06,31.11,24.65,36.39,0.04,-272.74,-272.74,-44,572,-941,25.5,6.8,-13.3,25.7,6.8,-13.1,5.73,2.36,-21.3,31.0
2012-10-18 02:07:00,0.0,1.9238,0.0011,394.38,0.33,319.0,29.6,138.06,31.11,24.65,36.39,0.04,-272.75,-272.74,-44,572,-941,25.5,6.8,-13.3,25.7,6.8,-13.0,5.73,2.42,-21.3,31.0
2012-10-18 02:08:00,0.0,1.9236,0.0011,394.41,0.27,322.5,31.1,138.06,31.11,24.65,36.38,0.04,-272.76,-272.74,-44,572,-941,25.5,6.8,-13.2,25.7,6.8,-13.0,5.73,2.42,-21.3,31.0
2012-10-18 02:09:00,0.0,1.9222,0.0010,394.34,0.32,320.4,35.7,138.06,31.11,24.65,36.39,0.04,-272.73,-272.74,-44,572,-941,25.5,6.9,-13.1,25.7,6.9,-12.9,5.73,2.37,-21.3,31.0
2012-10-18 02:10:00,0.0,1.9232,0.0012,394.23,0.34,326.6,33.5,138.06,31.12,24.65,36.39,0.04,-272.72,-272.74,-44,572,-941,25.5,6.9,-13.1,25.7,6.9,-12.9,5.73,2.33,-21.3,31.0
2012-10-18 02:11:00,0.0,1.9221,0.0010,394.23,0.32,329.6,29.1,138.06,31.12,24.65,36.39,0.04,-272.74,-272.74,-43,572,-941,25.5,6.9,-13.0,25.7,6.9,-12.8,5.73,2.37,-21.3,31.0
2012-10-18 02:12:00,0.0,1.9219,0.0009,394.31,0.30,318.2,30.6,138.06,31.13,24.65,36.38,0.04,-272.74,-272.74,-44,572,-941,25.5,6.9,-13.1,25.7,6.9,-12.8,5.73,2.42,-21.3,31.0
2012-10-18 02:13:00,0.0,1.9215,0.0011,394.12,0.30,324.0,36.0,138.06,31.13,24.65,36.39,0.04,-272.75,-272.75,-44,572,-941,25.5,6.9,-13.0,25.7,6.9,-12.8,5.73,2.42,-21.3,31.0
2012-10-18 02:14:00,0.0,1.9221,0.0010,394.32,0.30,333.9,35.2,138.06,31.13,24.65,36.38,0.04,-272.75,-272.73,-44,572,-941,25.5,6.9,-13.1,25.7,6.9,-12.9,5.73,2.36,-21.3,30.9
2012-10-18 02:15:00,0.0,1.9228,0.0011,394.30,0.31,317.2,30.9,138.06,31.13,24.65,36.38,0.04,-272.74,-272.74,-44,572,-941,25.5,6.9,-13.1,25.7,6.9,-12.8,5.73,2.33,-21.4,30.9
2012-10-18 02:16:00,0.0,1.9220,0.0010,394.19,0.30,325.0,31.3,138.06,31.13,24.65,36.39,0.04,-272.75,-272.75,-44,572,-941,25.5,6.9,-13.1,25.7,6.9,-12.8,5.73,2.37,-21.3,30.9